Погода Старая Русса

Хотите узнать прогноз погоды Старая Русса? Тогда Вам сюда: Погода Старая Русса

Поиск расширенной информации на нашем сайте:

Полезная информация:

Новости сайта



02.01.2020
Опубликован Долгосрочный прогноз погоды по городам России и ближнего зарубежья на январь 2020 года.
Карты: Прогноз на январь и февраль 2020 года, Сравнение прогнозируемой аномалии приземной температуры воздуха на январь 2020 года по разным моделям.




Погода Старая Русса - сегодня

Время (UTC), дата Ветер
(°,м/с) 
Видим.   Явления Облачность Т
(°С)
Тd
(°С)
f(%) Тe
(°С)
Pmin
(гПа)
dP
(гПа)
Po
(мм)
O2
(г/м3)
Тmin Tmax R s Состояние
почвы
15 09.08.20 320 (СЗ) 20000 м    3/1 600 м средняя 
[Cu med, cong|Ac trans]
+27 +13.5 43 +33  1016.9  -1.3  761  276           
18 09.08.20 тихо ()   20000 м    6/0 средняя 
[Ac trans]
+21.4 +18 81 +35  1017.2  0.2  761  280    +27.9       
21 09.08.20 тихо ()   20000 м    ясно 
+15.5 +14.6 94 +23  1017.2  761  287           
00 10.08.20 тихо ()   4000 м  дымка  ясно 
+13 +12.5 97 +17  1017.3  761  290           
03 10.08.20 тихо ()   20000 м    3/0 средняя 
[Ac trans]
+12.9 +12.4 97 +17  1016.6  -0.7  760  290  +12.3         
06 10.08.20 тихо ()   20000 м    3/0 средняя 
[Ac trans]
+20.6 +16 75 +31  1015.9  -0.6  760  281  +12.3         
09 10.08.20 тихо ()   20000 м  гроза без осадков  8/3 300 м кучево-дожд., средняя 
[Cb calv|Ac trans]
+24.2 +18 68 +38  1015.6  -0.2  760  277           
12 10.08.20 040 (СВ) 20000 м  {гроза}  8/3 300 м средняя, верхняя 
[Cu med, cong|Ac trans|Ci fib]
+23.8 +17.6 68 +37  1014.9  -0.7  759  277           
15 10.08.20 280 (З) 20000 м  гроза без осадков  8/5 300 м кучево-дожд., верхняя 
[Cb calv|Ci fib]
+23 +16.8 68 +35  1014.8  -0.2  759  278           
18 10.08.20 360 (С) 20000 м  {гроза}  6/0 средняя 
[Ac trans]
+19.5 +12.1 62 +25  1016.2  1.4  760  284    +24.7       
21 10.08.20 тихо ()   20000 м    ясно 
+14.4 +10.5 77 +16  1017.9  1.6  761  289           
00 11.08.20 тихо ()   20000 м    ясно 
+9.5 +8.7 95 +10  1018.4  0.5  762  295           
03 11.08.20 тихо ()   20000 м    10/0 средняя 
[Ac As]
+13.5 +11 85 +16  1018.3  -0.1  761  290  +9.1         
06 11.08.20 340 (С) 20000 м  {ливн. осадки}  10/4 600 м кучево-дожд., средняя 
[Cb cap|Ac und]
+15.1 +11.5 79 +19  1018.3  0.1  762  289  +9.1    0.0     
09 11.08.20 330 (СЗ) 20000 м    6/6 600 м 
[Cu med, cong]
+16.9 +9.8 63 +18  1018.4  0.1  762  287           
12 11.08.20 350 (С) 20000 м    10/0 средняя 
[Ac und]
+15.4 +9 66 +16  1019.2  0.8  762  289           
15 11.08.20 320 (СЗ) 10 км  слаб. ливневой дождь  10/6 600 м кучево-дожд., средняя 
[Cb cap|As op]
+13.2 +10.5 84 +14  1019.6  0.3  762  291      0.0     
18 11.08.20 340 (С) 20000 м  {ливн. осадки}  10/10 600 м 
[Sc]
+13.5 +10 79 +15  1019.2  -0.4  762  291    +18.1  0.0     
21 11.08.20 350 (С) 20000 м  {ливн. осадки}  10/10 480 м 
[Sc]
+13.4 +10.9 85 +16  1019.1  -0.1  762  291           
00 12.08.20 010 (С) 20000 м  {ливн. осадки}  10/10 600 м 
[Sc]
+13.2 +10.9 86 +16  1019.3  0.2  762  291           
03 12.08.20 тихо ()   20000 м    10/10 450 м 
[Sc]
+12.8 +10 83 +14  1019.8  0.5  763  292  +12.8    0.0     
06 12.08.20 350 (С) 20000 м    9/8 600 м средняя 
[Cu med, cong|Ac und]
+14.1 +9.8 75 +15  1020  0.2  763  291  +12.8    0.0     
09 12.08.20 350 (С) 20000 м    9/9 600 м 
[Sc]
+15.6 +9.5 67 +16  1020.3  0.4  763  289           
12 12.08.20 340 (С) 20000 м    10/10 1300 м 
[Sc]
+15 +9.4 69 +16  1020.4  763  290           
15 12.08.20 тихо ()   20000 м    10/0 средняя 
[Ac und]
+14.9 +9.2 69 +15  1020.3  -0.1  763  290           
Время (UTC), дата Ветер
(°,м/с) 
Видим.   Явления Облачность Т
(°С)
Тd
(°С)
f(%) Тe
(°С)
Pmin
(гПа)
dP
(гПа)
Po
(мм)
O2
(г/м3)
Тmin Tmax R s Состояние
почвы

Для получения пояснительной информации подведите курсор к названию столбца.

ПОГОДА Старая Русса - архив

Всё, что Вы хотите узнать о погоде Старая Русса - удобно и подробно!

Выберите нужную дату (начиная с 1 января 2019* года) и нажмите кнопку "Найти".
Будут отображены архивные сводки погоды по пункту Старая Русса, начиная с указанной даты.


Отображать данные в формате CSV (для использования в таблицах Excel)


Внимание! Наш архив погоды предназначен исключительно для личного некоммерческого использования в познавательных целях. Если Вам необходимы официальные справки о состоянии погоды (для производственных, юридических, коммерческих и т.п. целей), обращайтесь в органы Росгидромета.

*Примечание: данная дата относится к архиву по метеостанциям СССР (Россия, СНГ, Балтия).
Архив по метеостанциям Зарубежной Европы и Азии (кроме Китая) хранится 10 дней, по другим регионам земного шара (Китай, Африка, Америка, Австралия, Океания) - 1 день.

Старая Русса - район местоположения метеостанции


Название, широта, долгота, высота метеостанции:
Старая Русса 58°ш. 31.3°д. 25 м над ур. моря [Российская Федерация]

Дополнительная информация

В oтличие oт бoльшинства пoгoдных сайтoв мы публикуем пoдрoбную метеoинфoрмацию в детальнoм прoфессиoнальнoм фoрмате.

Характеристики температуры и влажнoсти вoздуха измеряются на высoте 2 м в тени вдали oт зданий и деревьев.
Скoрoсть ветра измеряется на высoте 10 м (на урoвне рoста челoвека скoрoсть ветра ниже в 1.5-2 раза). Если метеoстанция нахoдится в гoрoде или в лесу, тo скoрoсть ветра занижена на 2-4 м/с пo сравнению с oткрытым местoм. Скoрoсть ветра над акватoриями крупных рек и oзёр, а также на вершинах хoлмoв на 2-5 м/с выше, чем в oбычных услoвиях.
Атмoсфернoе давление в разных тoчках местнoсти мoжет значительнo oтличаться oт давления на метеoстанции, в зависимoсти oт услoвий рельефа (при пoдъёме на 10 м давление пoнижается примернo на 1 мм рт.ст.).